This demonstration page uses our WeatherBlox Daily Observations layout. Learn more.

Left ArrowRight Arrow

39.08367, -84.50855

Hourly Observations for October 12, 2015

Temp ( °F °C ) Dew Point ( °F °C ) Humidity (%) Winds ( mph kmh ) Pressure ( in mb ) Visibility ( mi km ) Precip ( " mm )
12:07 am 00:07 Clear with Mist and Fog 48 8.9 48 8.9 100 100 Calm 29.91 1013 3 4 0.00 0.00
12:15 am 00:15 Clear 49 9.4 48 8.9 97 97 Calm 29.91 1013 9 14 0.00 0.00
12:53 am 00:53 Clear with Mist and Fog 48 8.9 47 8.3 96 96 Calm 29.87 1012 2 3 0.00 0.00
1:25 am 01:25 Clear with Mist and Fog 47 8.3 46 7.8 97 97 Calm 29.91 1013 2 3 0.00 0.00
1:36 am 01:36 Clear with Mist and Fog 46 8 46 8 100 100 Calm 29.91 1013 3 5 0.00 0.00
1:53 am 01:53 Clear with Mist and Fog 48 8.9 48 8.9 100 100 Calm 29.87 1011 6 10 0.00 0.00
2:36 am 02:36 Clear with Mist and Fog 45 7 45 7 100 100 Calm 29.91 1013 2 3 0.00 0.00
2:45 am 02:45 Clear 47 8.3 46 7.8 97 97 Calm 29.91 1013 7 11 0.00 0.00
2:53 am 02:53 Clear 46 7.8 46 7.8 100 100 Calm 29.86 1011 8 13 0.00 0.00
3:26 am 03:26 Clear with Mist and Fog 45 7.2 45 7.2 100 100 Calm 29.91 1013 2 2 0.00 0.00
3:37 am 03:37 Clear with Mist and Fog 46 7.8 45 7.2 96 96 Calm 29.88 1012 3 5 0.00 0.00
3:53 am 03:53 Clear with Mist and Fog 43 6.1 43 6.1 100 100 Calm 29.86 1011 4 6 0.00 0.00
4:24 am 04:24 Clear with Mist and Fog 45 7 45 7 100 100 Calm 29.88 1012 2 3 0.00 0.00
4:33 am 04:33 Clear with Mist and Fog 45 7.2 45 7.2 100 100 Calm 29.85 1011 4 6 0.00 0.00
4:43 am 04:43 Clear with Mist and Fog 44 6.7 44 6.7 100 100 Calm 29.85 1011 1 1 0.00 0.00
4:50 am 04:50 Mostly Cloudy with Fog 43 6 43 6 100 100 Calm 29.85 1011 0 0 0.00 0.00
4:53 am 04:53 Mostly Cloudy with Fog 43 6.1 43 6.1 100 100 Calm 29.83 1010 0 0 0.00 0.00
5:01 am 05:01 Partly Cloudy with Mist and Fog 43 6.1 43 6.1 100 100 Calm 29.85 1011 1 2 0.00 0.00
5:03 am 05:03 Partly Cloudy with Mist and Fog 43 6 43 6 100 100 Calm 29.85 1011 3 5 0.00 0.00
5:15 am 05:15 Mostly Clear with Mist and Fog 43 6.1 43 6.1 100 100 Calm 29.85 1011 2 3 0.00 0.00
5:22 am 05:22 Mostly Cloudy with Mist and Fog 43 6 43 6 100 100 Calm 29.85 1011 1 1 0.00 0.00
5:25 am 05:25 Clear with Mist and Fog 44 6.7 44 6.7 100 100 Calm 29.85 1011 1 2 0.00 0.00
5:32 am 05:32 Clear with Mist and Fog 45 7 45 7 100 100 Calm 29.85 1011 3 5 0.00 0.00
5:53 am 05:53 Clear with Mist and Fog 43 6.1 43 6.1 100 100 Calm 29.84 1010 4 6 0.00 0.00
6:19 am 06:19 Clear with Mist and Fog 45 7.2 45 7.2 100 100 Calm 29.85 1011 3 4 0.00 0.00
6:27 am 06:27 Clear 46 8 46 8 100 100 Calm 29.85 1011 9 14 0.00 0.00
6:53 am 06:53 Clear 44 6.7 44 6.7 100 100 Calm 29.83 1010 10 16 0.00 0.00
7:53 am 07:53 Sunny 48 8.9 46 7.8 93 93 WSW 5 7 29.82 1010 10 16 0.00 0.00
8:53 am 08:53 Mostly Cloudy 53 11.7 50 10 89 89 SSW 5 7 29.81 1010 10 16 0.00 0.00
9:53 am 09:53 Partly Cloudy 57 13.9 52 11.1 83 83 SW 7 11 29.80 1009 10 16 0.00 0.00
10:53 am 10:53 Sunny 64 17.8 53 11.7 68 68 S 9 15 29.78 1008 10 16 0.00 0.00
11:53 am 11:53 Sunny 70 21.1 54 12.2 57 57 S 12 19 29.73 1007 10 16 0.00 0.00
12:53 pm 12:53 Sunny 74 23.3 54 12.2 50 50 S 17 28 29.70 1006 10 16 0.00 0.00
1:53 pm 13:53 Sunny 76 24.4 55 12.8 48 48 SSW 17 28 29.66 1005 10 16 0.00 0.00
2:53 pm 14:53 Sunny 78 25.6 55 12.8 45 45 SSW 16 26 29.63 1003 10 16 0.00 0.00
3:53 pm 15:53 Cloudy 77 25 55 12.8 47 47 SSW 16 26 29.62 1003 10 16 0.00 0.00
4:53 pm 16:53 Partly Cloudy 77 25 56 13.3 48 48 SSW 18 30 29.60 1002 10 16 0.00 0.00
5:53 pm 17:53 Sunny 75 23.9 57 13.9 54 54 SSW 9 15 29.58 1002 10 16 0.00 0.00
6:53 pm 18:53 Mostly Cloudy with Thunderstorms 73 22.8 57 13.9 57 57 SW 7 11 29.60 1002 10 16 0.00 0.00
7:23 pm 19:23 Cloudy with Strong Thunderstorms 66 18.9 63 17.2 90 90 WSW 15 24 29.68 1005 2 3 0.13 3.30
7:31 pm 19:31 Cloudy with Strong Thunderstorms 65 18.3 64 17.8 97 97 WSW 10 17 29.68 1005 3 4 0.19 4.83
7:53 pm 19:53 Cloudy with Strong Thunderstorms 64 17.8 64 17.8 100 100 ESE 8 13 29.64 1004 3 4 0.31 7.87
8:25 pm 20:25 Cloudy with Rain 64 17.8 64 17.8 100 100 SSE 9 15 29.65 1004 4 6 0.10 2.54
8:53 pm 20:53 Cloudy with Light Rain 64 17.8 63 17.2 96 96 SSE 5 7 29.63 1003 8 13 0.13 3.30
9:53 pm 21:53 Clear 63 17.2 62 16.7 97 97 Calm 29.63 1003 10 16 0.00 0.03
10:45 pm 22:45 Mostly Clear with Mist and Fog 60 15.6 60 15.6 100 100 SE 3 6 29.65 1004 2 3 0.00 0.00
10:53 pm 22:53 Mostly Clear with Mist and Fog 60 15.6 60 15.6 100 100 SSE 5 7 29.63 1004 2 3 0.00 0.00
11:01 pm 23:01 Mostly Clear with Mist and Fog 61 16.1 61 16.1 100 100 SSE 3 6 29.65 1004 5 8 0.00 0.00
11:13 pm 23:13 Mostly Cloudy with Mist and Fog 61 16.1 61 16.1 100 100 SSW 6 9 29.65 1004 6 10 0.00 0.00
11:53 pm 23:53 Mostly Cloudy 63 17.2 63 17.2 100 100 SSW 8 13 29.62 1003 7 11 0.00 0.00

Powered by AerisWeather